Location: Bodham
(52.9000°N, 1.1667°E)
Time: 14:40:05
(UTC+00:00)

Cosmos 2112 Rocket - Pass Details

Date: 20 October 2025
Orbit: 753 x 782 km, 74.0° (Epoch: 13 November)

Event Time Altitude Azimuth Distance (km) Brightness Sun altitude
Rises 18:09:13 0° 159° (SSE) 3,255 7.0 -12.8°
Reaches altitude 10° 18:12:08 10° 143° (SE) 2,329 6.2 -13.3°
Maximum altitude 18:15:57 21° 97° (E) 1,715 5.2 -13.9°
Enters shadow 18:16:07 21° 94° (E) 1,717 5.2 -13.9°
